Location: �chenoz-la-M�line
(47.6009°N, 6.1354°E)
Time: 13:41:31
(UTC+00:00)

Cosmos 1980 - Pass Details

Date: 09 December 2021
Orbit: 837 x 849 km, 71.0° (Epoch: 20 January)

Event Time Altitude Azimuth Distance (km) Brightness Sun altitude
Rises 17:38:54 0° 338° (NNW) 3,416 7.0 -18.5°
Reaches altitude 10° 17:43:04 10° 7° (N) 2,479 5.9 -19.1°
Enters shadow 17:44:08 12° 18° (NNE) 2,358 5.7 -19.3°
